IXPE

Last updated on Thu Nov 21 2024 00:03:26 GMT+0000 (Coordinated Universal Time)

1 49954U 21121A 24325.58335648 .00009350 00000+0 63596-3 0 9994 2 49954 0.2319 310.1934 0008055 89.9107 280.9921 15.01642250161422
UTC large
Height (km)
Speed (km/s)
/
Latitude / Longitude
Inclination (degrees)
Orbital Period (minutes)
Azimuth
Elevation
Range (km)
Doppler Factor

Next 0 passes for location: London (51.5072 / 0.1276)

Sorry there are no passes over London.